Weather History for Grand Junction, CO

Change the Weather History Date:

Thursday, August 2, 2012

  Actual Average Record
Temperature  
Mean Temperature 82 °F 78 °F  
Max Temperature 94 °F 92 °F 103 °F (2000)
Min Temperature 70 °F 64 °F 54 °F (1998)
Degree Days  
Heating Degree Days 0 0  
Month to date heating degree days 0 0  
Since 1 June heating degree days 2 23  
Since 1 July heating degree days 0 1  
Cooling Degree Days 17 13  
Month to date cooling degree days 31 26  
Year to date cooling degree days 996 718  
Since 1 June cooling degree days 909 667  
Growing Degree Days 32 (Base 50)    
Moisture  
Dew Point 48 °F    
Average Humidity 38    
Maximum Humidity 61    
Minimum Humidity 15    
Precipitation  
Precipitation 0.00 in 0.03 in 0.42 in (1899)
Month to date precipitation T 0.06  
Year to date precipitation 2.40 4.96  
Snow  
Snow 0.00 in 0.00 in 0.00 in (2013)
Month to date snowfall 0.0 0.0  
Since 1 June snowfall 0.0 0.0  
Since 1 July snowfall 0.0 0.0  
Snow Depth 0.00 in    
Sea Level Pressure  
Sea Level Pressure 29.89 in    
Wind  
Wind Speed 9 mph (SE)    
Max Wind Speed 22 mph    
Max Gust Speed 24 mph    
Visibility 10 miles    
Events      
T = Trace of Precipitation, MM = Missing Value Source: NWS Daily Summary

Daily Weather History Graph

Daily Weather History Graph

Search for Another Location

Airport:

Trip Planner

Search our weather history database for the weather conditions in past years. The results will help you decide how hot, cold, wet, or windy it might be!

Date:

Astronomy

Aug. 02, 2012 Rise Set
Actual Time 6:15 AM MDT 8:24 PM MDT
Civil Twilight 5:46 AM MDT 8:53 PM MDT
Nautical Twilight 5:09 AM MDT 9:30 PM MDT
Astronomical Twilight 4:30 AM MDT 10:09 PM MDT
Moon 8:33 PM MDT (8/2) 6:55 AM MDT (8/2)
Length of Visible Light 15h 07m
Length of Day
14h 08m
Full, 100% of the Moon is Illuminated
Aug 2
Full
Aug 9
Last Quarter
Aug 17
New
Aug 24
First Quarter
Aug 31
Full

Hourly Weather History & Observations

Time (MDT) Temp. Dew Point Humidity Pressure Visibility Wind Dir Wind Speed Gust Speed Precip Events Conditions
12:53 AM 75.9 °F 48.9 °F 38% 29.95 in 10.0 mi SW 5.8 mph - N/A   Mostly Cloudy
1:53 AM 75.0 °F 52.0 °F 44% 29.94 in 10.0 mi ESE 16.1 mph - N/A   Overcast
2:53 AM 73.4 °F 55.4 °F 53% 30.17 in 10.0 mi ESE 15.0 mph - N/A   Partly Cloudy
3:53 AM 71.1 °F 54.0 °F 55% 29.93 in 10.0 mi ESE 12.7 mph - N/A   Scattered Clouds
4:53 AM 71.1 °F 54.0 °F 55% 29.90 in 10.0 mi East 15.0 mph - N/A   Mostly Cloudy
5:53 AM 70.0 °F 55.0 °F 59% 29.93 in 10.0 mi East 16.1 mph - N/A   Scattered Clouds
6:53 AM 70.0 °F 54.0 °F 57% 29.94 in 10.0 mi ESE 10.4 mph - N/A   Scattered Clouds
7:53 AM 71.1 °F 55.0 °F 57% 29.96 in 10.0 mi SSE 12.7 mph - N/A   Scattered Clouds
8:53 AM 75.0 °F 55.0 °F 50% 29.96 in 10.0 mi SSE 12.7 mph - N/A   Scattered Clouds
9:53 AM 75.9 °F 54.0 °F 46% 29.96 in 10.0 mi SSE 8.1 mph - N/A   Scattered Clouds
10:53 AM 77.0 °F 54.0 °F 45% 29.96 in 10.0 mi South 6.9 mph - N/A   Clear
11:53 AM 79.0 °F 52.0 °F 39% 29.94 in 10.0 mi South 5.8 mph - N/A   Clear
12:53 PM 82.0 °F 50.0 °F 33% 29.91 in 10.0 mi Calm Calm - N/A   Clear
1:53 PM 87.1 °F 48.0 °F 26% 29.86 in 10.0 mi Variable 4.6 mph - N/A   Clear
2:53 PM 91.0 °F 39.9 °F 17% 29.85 in 10.0 mi NW 4.6 mph - N/A   Clear
3:53 PM 91.9 °F 37.0 °F 15% 29.82 in 10.0 mi South 4.6 mph - N/A   Clear
4:53 PM 91.0 °F 39.0 °F 16% 29.80 in 10.0 mi Calm Calm - N/A   Clear
5:53 PM 91.9 °F 39.0 °F 16% 29.78 in 10.0 mi SSE 8.1 mph - N/A   Clear
6:53 PM 91.0 °F 39.0 °F 16% 29.76 in 10.0 mi ESE 6.9 mph - N/A   Clear
7:53 PM 89.1 °F 37.9 °F 16% 29.77 in 10.0 mi SE 5.8 mph - N/A   Clear
8:53 PM 84.9 °F 46.9 °F 27% 29.79 in 10.0 mi SSE 12.7 mph - N/A   Clear
9:53 PM 80.1 °F 46.0 °F 30% 29.83 in 10.0 mi ENE 9.2 mph - N/A   Clear
10:53 PM 77.0 °F 44.6 °F 32% 30.04 in 10.0 mi ESE 9.2 mph - N/A   Clear
11:53 PM 77.0 °F 48.9 °F 37% 29.83 in 10.0 mi ESE 10.4 mph - N/A   Clear